Location: Dimechaux
(50.1952°N, 4.0401°E)
Time: 21:04:55
(UTC+00:00)

Daily predictions for brighter satellites

Satellite Brightness Start Highest point End
(mag) Time Altitude Azimuth Time Altitude Azimuth Time Altitude Azimuth
Cosmos 1626 Rocket 3.6 16:09:25 10° N 16:13:42 60° ENE 16:17:57 10° SSE
Meteor 1-28 Rocket 3.8 16:11:56 10° NE 16:14:55 29° E 16:17:52 10° SSE
NOSS 2-2 (C) 3.0 16:13:03 10° SW 16:16:13 61° NW 16:19:12 10° NE
JB-3 4.1 16:12:44 10° NNE 16:16:23 76° ESE 16:20:01 10° S
Cosmos 1315 Rocket 3.1 16:18:26 10° SSW 16:22:15 67° WNW 16:26:05 10° N
BlueWalker 3 4.0 16:19:17 10° W 16:22:28 29° SW 16:25:39 10° SSE
ATLAS CENTAUR R/B 1.8 16:21:49 10° NW 16:24:58 49° SW 16:28:01 10° SSE
Thor Agena Rocket 3.6 16:22:37 10° SE 16:27:42 57° ENE 16:32:44 10° N
Cosmos 2219 4.3 16:23:28 10° NNW 16:28:02 24° NE 16:32:35 10° E
CENTAUR R/B 3.1 16:23:08 10° WSW 16:28:55 54° NW 16:36:15 10° NE
Cosmos 1484 Rocket 2.5 16:28:45 10° SSE 16:32:16 88° E 16:35:47 10° NNW
USA 290 2.1 16:29:17 10° NNW 16:32:34 81° ENE 16:35:49 10° SSE
Cosmos 1544 Rocket 3.6 16:28:30 10° S 16:32:51 66° E 16:37:16 10° NNE
SL-16 R/B 2.6 16:27:14 10° NNE 16:33:28 72° ESE 16:39:39 10° S
GEOS 3 Rocket 4.3 16:29:14 10° NE 16:34:19 41° ESE 16:39:22 10° SSW
Lacrosse 5 rocket 1.9 16:30:53 10° W 16:34:24 38° NNW 16:37:41 11° NE
Cosmos 1844 Rocket 4.4 16:31:56 10° N 16:34:38 13° NNE 16:37:19 10° NE
Cosmos 1980 Rocket 3.8 16:32:00 10° SE 16:35:05 15° E 16:37:57 11° ENE
Iridium 51 4.3 16:35:12 10° SSW 16:38:18 60° W 16:41:30 10° N
Lacrosse 4 Rocket 3.1 16:36:00 10° W 16:39:23 25° NW 16:42:44 10° NNE
BREEZE M DEB (TANK) 3.8 16:37:34 10° SSW 16:39:37 19° SSE 16:41:14 10° ESE
CORIOLIS 4.1 16:36:37 10° SSE 16:41:53 66° ENE 16:47:12 10° N
Cosmos 2263 Rocket 2.8 16:38:11 10° NNW 16:43:23 36° NE 16:48:35 10° ESE
IRIDIUM 104 4.4 16:38:24 10° N 16:43:33 54° E 16:48:39 10° SSE
Cosmos 2228 3.7 16:39:32 10° SSW 16:43:43 57° WNW 16:47:55 10° N
Cosmos 1777 Rocket 4.1 16:38:57 10° S 16:44:05 57° ESE 16:49:13 10° NNE
CZ-2D R/B 3.3 16:45:39 10° SE 16:48:33 36° ENE 16:51:29 10° N
Okean 1-7 Rocket 3.6 16:46:24 10° N 16:50:44 54° ENE 16:55:01 10° SSE
Cosmos 1602 Rocket 3.5 16:48:17 10° N 16:52:42 81° E 16:57:03 10° SSE
IRIDIUM 114 4.3 16:47:30 10° N 16:52:43 65° E 16:57:53 10° SSE
Cosmos 1461 2.8 16:51:39 10° SSW 16:55:29 61° SE 16:58:30 16° NE
Cosmos 1933 3.6 16:54:07 10° SSE 16:57:42 40° E 17:01:19 10° NNE
USA 215 3.7 16:53:50 14° ENE 16:59:22 50° N 17:05:38 10° WNW
IRS-1C 4.1 16:54:37 10° SSE 16:59:53 68° ENE 17:05:11 10° N
Cosmos 2227 Rocket 2.1 16:54:24 10° NNW 17:00:03 68° ENE 17:05:40 10° SE
YAOGAN 1 3.6 16:57:28 10° ESE 17:00:46 22° ENE 17:04:05 10° NNE
IRIDIUM 103 4.3 16:56:38 10° N 17:01:53 77° E 17:07:06 10° S
NOSS 2-3 (E) 4.4 16:59:04 10° S 17:02:07 25° ESE 17:03:39 19° E
NOSS 2-3 (D) 4.5 16:59:48 10° S 17:02:48 24° ESE 17:04:13 19° E
Cosmos 1743 3.0 17:00:01 10° NNW 17:03:13 55° W 17:06:24 10° S
NOSS 7 (H) 4.0 17:00:43 10° NW 17:03:38 85° SW 17:06:47 10° SE
Cosmos 1486 Rocket 4.1 16:58:36 10° SSW 17:03:49 82° WNW 17:09:06 10° NNE
Cosmos 2369 Rocket 4.3 17:00:34 10° WNW 17:04:15 17° NNW 17:07:58 10° N
SJ-12 3.7 17:00:57 10° SSE 17:04:40 60° ENE 17:08:25 10° N
Cosmos 2151 3.1 17:02:38 10° NNW 17:06:48 75° W 17:10:57 10° S
Cosmos 2360 4.3 17:02:17 10° SSW 17:08:00 81° WNW 17:13:47 10° NNE
Cosmos 2279 Rocket 4.5 17:05:35 10° SSW 17:11:44 64° WNW 17:17:57 10° N
Cosmos 1655 Rocket 4.1 17:06:31 10° N 17:12:39 54° ENE 17:18:43 10° SSE
Cosmos 1697 Rocket 2.7 17:09:16 10° SSW 17:14:45 60° ESE 17:19:15 16° NE
Cosmos 1867 3.9 17:09:29 10° NW 17:14:57 72° SW 17:20:21 10° SSE
Cosmos 990 Rocket 4.1 17:10:11 10° S 17:15:09 53° ESE 17:19:09 16° NE
Cosmos 1953 Rocket 3.8 17:12:12 10° N 17:16:29 44° ENE 17:20:45 10° SSE
MOS 1 Rocket 3.4 17:12:31 10° SSE 17:17:26 71° ENE 17:22:39 10° N
Aureole 1 Rocket 4.3 17:13:54 10° SSE 17:17:45 28° E 17:19:37 22° ENE
SAR-Lupe-4 3.5 17:14:31 10° SSE 17:18:04 88° WSW 17:21:39 10° NNW
IRIDIUM 106 4.5 17:14:58 10° N 17:20:13 77° W 17:25:25 10° S
NOSS 2-2 (D) 4.2 17:20:52 10° W 17:23:40 29° NW 17:25:11 19° N
Cosmos 1782 4.3 17:20:29 10° SW 17:23:46 32° WNW 17:27:03 10° N
ARIANE 5 R/B 2.7 17:19:46 10° SSE 17:24:50 78° WSW 17:30:00 10° NNW
Cosmos 1825 Rocket 3.4 17:21:30 10° N 17:25:53 88° ENE 17:30:11 10° S
SAR-Lupe-1 4.2 17:25:21 10° S 17:28:57 76° WSW 17:32:35 10° NNW
SOZ 4.4 17:27:24 10° SW 17:29:40 37° SSE 17:29:40 37° SSE
Cosmos 1680 Rocket 4.4 17:27:09 10° N 17:31:33 26° NE 17:31:45 26° NE
Cosmos 2098 Rocket 4.4 17:27:54 10° SW 17:32:00 43° WNW 17:36:48 10° N
USA 81 4.2 17:28:28 10° N 17:33:37 50° ENE 17:38:43 10° SSE
UNK 4.1 17:29:45 10° N 17:34:19 64° WNW 17:38:48 10° SSW
CZ-2D R/B 3.5 17:32:04 10° SSE 17:36:08 53° ENE 17:40:10 10° N
NOSS 3-2 (A) 4.1 17:33:04 10° WSW 17:38:09 43° NNW 17:42:24 19° NNE
Gbstr 26 Del rocket 2.9 17:34:43 10° SW 17:38:39 55° SSE 17:39:37 41° ESE
IRAS Rocket 4.4 17:33:32 10° SE 17:38:46 49° ENE 17:44:01 10° N
NOSS 3-2 (C) 3.3 17:34:11 10° SW 17:39:20 74° NW 17:43:15 23° NE
SPOT 1/Viking Rocket 3.4 17:36:38 10° SSE 17:41:50 76° ENE 17:47:03 10° NNW
PSLV R/B 3.6 17:43:07 40° E 17:43:48 45° ENE 17:47:42 10° N
Cosmos 1076 Rocket 3.4 17:39:37 10° N 17:43:57 88° ENE 17:48:16 10° S
NOSS 2-2 (E) 4.4 17:41:32 10° W 17:44:11 24° NW 17:45:00 22° N
[s.n.66845] 4.1 17:43:16 10° NNW 17:43:44 14° NNW 17:43:44 14° NNW
[s.n.66847] 4.1 17:43:43 10° NNW 17:44:11 14° NNW 17:44:11 14° NNW
SJ-7 4.4 17:47:21 47° NE 17:47:21 47° NE 17:50:29 10° N
[s.n.66846] 4.1 17:44:09 10° NNW 17:44:36 14° NNW 17:44:36 14° NNW
Cosmos 2082 3.8 17:41:42 10° NNW 17:47:19 54° NE 17:50:41 24° ESE
[s.n.66843] 4.1 17:44:41 10° NNW 17:45:08 14° NNW 17:45:08 14° NNW
CZ-4C R/B 3.9 17:40:39 10° NW 17:47:27 50° WSW 17:55:43 10° SSE
SL-19 R/B 4.2 17:42:13 10° SE 17:47:31 58° ENE 17:53:07 10° N
[s.n.66844] 4.1 17:45:08 10° NNW 17:45:35 14° NNW 17:45:35 14° NNW
[s.n.66842] 4.2 17:45:40 10° NNW 17:46:06 13° NNW 17:46:06 13° NNW
COSMO-SKYMED 1 3.1 17:49:12 36° ESE 17:49:12 36° ESE 17:52:22 10° SSE
[s.n.66841] 4.2 17:46:07 10° NNW 17:46:33 13° NNW 17:46:33 13° NNW
[s.n.66840] 4.2 17:46:38 10° NNW 17:47:03 13° NNW 17:47:03 13° NNW
IRS-P3 4.4 17:44:07 10° S 17:49:25 69° WSW 17:54:44 10° NNW
[s.n.66838] 4.2 17:47:07 10° NNW 17:47:32 13° NNW 17:47:32 13° NNW
Cosmos 2058 Rocket 3.2 17:45:44 10° SSE 17:50:02 50° E 17:50:45 45° ENE
[s.n.66839] 4.2 17:47:37 10° NNW 17:48:01 13° NNW 17:48:01 13° NNW
[s.n.66837] 4.2 17:48:04 10° NNW 17:48:28 13° NNW 17:48:28 13° NNW
[s.n.66836] 4.2 17:48:33 10° NNW 17:48:58 13° NNW 17:48:58 13° NNW
[s.n.66835] 4.2 17:49:05 10° NNW 17:49:28 13° NNW 17:49:28 13° NNW
Cosmos 2297 Rocket 4.5 17:47:37 10° NW 17:52:13 26° WSW 17:56:47 10° SSW
[s.n.66834] 4.2 17:49:34 10° NNW 17:49:57 13° NNW 17:49:57 13° NNW
[s.n.66833] 4.3 17:50:01 10° NNW 17:50:24 13° NNW 17:50:24 13° NNW
[s.n.66832] 4.3 17:50:33 10° NNW 17:50:56 13° NNW 17:50:56 13° NNW
[s.n.66831] 4.3 17:50:58 10° NNW 17:51:21 13° NNW 17:51:21 13° NNW
[s.n.66830] 4.3 17:51:25 10° NNW 17:51:47 13° NNW 17:51:47 13° NNW
[s.n.66828] 4.3 17:51:51 10° NNW 17:52:12 13° NNW 17:52:12 13° NNW
[s.n.66829] 4.3 17:52:23 10° NNW 17:52:43 13° NNW 17:52:43 13° NNW
[s.n.66827] 4.3 17:52:55 10° NNW 17:53:15 13° NNW 17:53:15 13° NNW
[s.n.66826] 4.3 17:53:25 10° NNW 17:53:45 13° NNW 17:53:45 13° NNW
[s.n.66825] 4.3 17:53:51 10° NNW 17:54:11 13° NNW 17:54:11 13° NNW
[s.n.66824] 4.4 17:54:23 10° NNW 17:54:42 12° NNW 17:54:42 12° NNW
[s.n.66823] 4.4 17:54:54 10° NNW 17:55:13 12° NNW 17:55:13 12° NNW
[s.n.66822] 4.4 17:55:23 10° NNW 17:55:41 12° NNW 17:55:41 12° NNW
[s.n.66821] 4.4 17:55:52 10° NNW 17:56:09 12° NNW 17:56:09 12° NNW
Cosmos 1538 Rocket 4.1 17:54:23 10° NNW 17:59:42 81° WSW 18:05:01 10° SSE
Cosmos 1606 Rocket 4.4 17:56:57 10° SSW 18:01:14 50° WNW 18:05:35 10° N
Nadezhda 2 Rocket 4.4 17:55:38 10° N 18:01:44 62° ENE 18:07:45 10° SSE
Meteor 1-26 Rocket 4.1 17:58:39 10° S 18:03:56 58° E 18:05:35 41° NE
Cosmos 1553 Rocket 3.9 18:05:17 10° S 18:11:18 59° E 18:14:52 26° NNE
Lacrosse 5 rocket 2.7 18:08:52 10° WNW 18:11:16 25° NNW 18:11:16 25° NNW
GEOS 3 Rocket 4.2 18:09:53 30° NNE 18:12:23 54° NW 18:17:37 10° WSW
Resurs 1-3 3.5 18:08:21 10° SSE 18:12:39 83° WSW 18:17:00 10° NNW
Cosmos 2219 3.2 18:07:10 10° NNW 18:12:56 89° WSW 18:17:57 14° SSE
BREEZE-M DEB (TANK) 3.8 18:11:24 10° WSW 18:12:05 21° WSW 18:12:05 21° WSW
SL-16 R/B 4.3 18:11:28 10° N 18:16:31 27° NW 18:21:33 10° WSW
Cosmos 1980 Rocket 2.0 18:12:31 10° SSW 18:18:11 83° ESE 18:19:44 50° NE
Cosmos 1844 Rocket 3.4 18:14:49 10° NNW 18:18:59 36° NNE 18:18:59 36° NNE
CENTAUR R/B 4.0 18:15:20 10° WNW 18:21:11 31° N 18:24:02 24° NNE
USA 281 4.4 18:22:44 25° NNE 18:22:44 25° NNE 18:26:43 10° NNW
Spot 4 Rocket 4.3 18:19:24 10° S 18:24:28 66° WSW 18:29:36 10° NNW
NOSS 2-3 (C) 4.0 18:21:27 10° SW 18:23:55 44° WSW 18:23:55 44° WSW
Cosmos 1745 Rocket 4.3 18:20:01 10° N 18:24:48 46° NE 18:24:48 46° NE
Cosmos 2263 Rocket 3.0 18:22:01 10° NW 18:27:30 51° WSW 18:32:58 10° S
Cosmos 1898 Rocket 3.3 18:25:09 10° SSW 18:30:11 80° SE 18:30:11 80° SE
Cosmos 2369 3.7 18:25:32 10° SSW 18:30:42 60° SE 18:30:42 60° SE
Cosmos 44 Rocket 4.3 18:28:41 10° NNW 18:32:08 36° N 18:32:08 36° N
YAOGAN 1 3.5 18:32:15 10° S 18:36:21 47° W 18:40:30 10° NNW
Cosmos-2242 3.6 18:32:57 10° SSW 18:36:35 55° WSW 18:36:35 55° WSW
SKYMED 2 4.5 18:36:02 37° NNW 18:37:11 47° WNW 18:41:20 10° SW
USA 238 DEB 3.4 18:33:49 10° SW 18:39:59 86° NW 18:41:14 62° NE
USA 238 3.4 18:33:55 10° SW 18:40:07 87° NW 18:41:19 62° NE
Cosmos 923 Rocket 4.0 18:36:22 10° NNW 18:41:32 80° W 18:41:32 80° W
USA 215 3.3 18:41:10 56° NE 18:41:51 59° NNE 18:48:17 10° WNW
Cosmos 372 Rocket 4.1 18:37:42 10° SSW 18:42:50 68° WNW 18:43:10 66° NW
Cosmos 2227 Rocket 4.4 18:39:13 10° NW 18:43:35 23° WSW 18:47:56 10° SSW
Cosmos 1937 Rocket 4.1 18:43:54 10° SSW 18:47:30 46° SSW 18:47:30 46° SSW
Cosmos 1386 Rocket 4.4 18:45:32 10° N 18:51:38 84° W 18:57:49 10° S
Cosmos 1697 Rocket 4.2 18:54:08 10° WSW 18:59:04 31° NW 19:00:59 25° NNW
Aureole 1 Rocket 4.3 18:55:03 10° SW 18:59:35 47° WNW 19:00:04 46° NW
COSMOS 2455 4.3 19:10:10 10° SSW 19:12:49 27° SSW 19:12:49 27° SSW
Cosmos 1980 Rocket 4.3 19:58:18 10° W 20:01:31 22° WNW 20:01:31 22° WNW
CENTAUR R/B 4.4 20:07:14 10° NW 20:11:08 28° NNW 20:11:08 28° NNW
